| time (UTC) | temp F | wind direction | speed MPH | gust MPH | rain 1hr in | rain 24hr in | rain mn in | humidity % | barometer mb |
| 20260906231439 | 79 | 203 | 2.0 | 3.0 | 0.00 | 0.00 | 0.00 | 85 | 1016.2 |
| 20260906231022 | 80 | 203 | 1.0 | 2.0 | 0.00 | 0.00 | 0.00 | 82 | 1015.9 |
| 20260906230607 | 80 | 180 | 3.0 | 3.0 | 0.00 | 0.00 | 0.00 | 81 | 1015.9 |
| 20260906230149 | 81 | 203 | 1.0 | 2.0 | 0.00 | 0.00 | 0.00 | 81 | 1015.9 |
| 20260906225248 | 82 | 203 | 2.0 | 2.0 | 0.00 | 0.00 | 0.00 | 77 | 1015.9 |
| 20260906224344 | 81 | 113 | 1.0 | 4.0 | 0.00 | 0.00 | 0.00 | 79 | 1015.9 |
| 20260906223929 | 81 | 113 | 0.0 | 3.0 | 0.00 | 0.00 | 0.00 | 78 | 1015.9 |
| 20260906223442 | 81 | 180 | 2.0 | 2.0 | 0.00 | 0.00 | 0.00 | 80 | 1015.9 |
| 20260906223024 | 81 | 203 | 2.0 | 3.0 | 0.00 | 0.00 | 0.00 | 79 | 1015.9 |
| 20260906222609 | 81 | 203 | 3.0 | 4.0 | 0.00 | 0.00 | 0.00 | 76 | 1015.9 |
| 20260906222153 | 82 | 0 | 4.0 | 4.0 | 0.00 | 0.00 | 0.00 | 75 | 1015.9 |
| 20260906221737 | 82 | 338 | 1.0 | 1.0 | 0.00 | 0.00 | 0.00 | 76 | 1015.9 |
| 20260906221322 | 82 | 248 | 2.0 | 2.0 | 0.00 | 0.00 | 0.00 | 78 | 1015.9 |
| 20260906220905 | 82 | 225 | 0.0 | 1.0 | 0.00 | 0.00 | 0.00 | 76 | 1015.9 |
| 20260906220030 | 83 | 23 | 6.0 | 6.0 | 0.00 | 0.00 | 0.00 | 73 | 1015.9 |
| 20260906215559 | 83 | 315 | 1.0 | 4.0 | 0.00 | 0.00 | 0.00 | 72 | 1015.9 |
| 20260906215145 | 84 | 23 | 2.0 | 4.0 | 0.00 | 0.00 | 0.00 | 72 | 1015.9 |
| 20260906214240 | 84 | 248 | 0.0 | 2.0 | 0.00 | 0.00 | 0.00 | 73 | 1015.9 |
| 20260906213821 | 84 | 225 | 2.0 | 2.0 | 0.00 | 0.00 | 0.00 | 72 | 1015.9 |
| 20260906213405 | 86 | 0 | 3.0 | 8.0 | 0.00 | 0.00 | 0.00 | 71 | 1015.9 |
| 20260906212932 | 85 | 315 | 0.0 | 8.0 | 0.00 | 0.00 | 0.00 | 70 | 1015.9 |
| 20260906212517 | 85 | 0 | 2.0 | 3.0 | 0.00 | 0.00 | 0.00 | 71 | 1015.9 |
| 20260906212031 | 86 | 315 | 0.0 | 3.0 | 0.00 | 0.00 | 0.00 | 72 | 1015.5 |
| 20260906211616 | 84 | 293 | 2.0 | 4.0 | 0.00 | 0.00 | 0.00 | 75 | 1015.9 |
| 20260906211144 | 83 | 158 | 4.0 | 4.0 | 0.00 | 0.00 | 0.00 | 76 | 1015.5 |
| 20260906210726 | 83 | 180 | 2.0 | 2.0 | 0.00 | 0.00 | 0.00 | 74 | 1015.5 |
| 20260906210311 | 84 | 158 | 1.0 | 2.0 | 0.00 | 0.00 | 0.00 | 73 | 1015.5 |
| 20260906205854 | 84 | 270 | 3.0 | 6.0 | 0.00 | 0.00 | 0.00 | 72 | 1015.5 |
| 20260906205422 | 86 | 68 | 5.0 | 10.0 | 0.00 | 0.00 | 0.00 | 71 | 1015.5 |
| 20260906205004 | 85 | 158 | 2.0 | 6.0 | 0.00 | 0.00 | 0.00 | 72 | 1015.5 |
| 20260906203616 | 84 | 45 | 4.0 | 5.0 | 0.00 | 0.00 | 0.00 | 73 | 1015.5 |
| 20260906203111 | 84 | 23 | 5.0 | 5.0 | 0.00 | 0.00 | 0.00 | 73 | 1015.5 |
| 20260906202651 | 85 | 0 | 5.0 | 5.0 | 0.00 | 0.00 | 0.00 | 73 | 1015.5 |
| 20260906201316 | 86 | 135 | 4.0 | 4.0 | 0.00 | 0.00 | 0.00 | 72 | 1015.2 |
| 20260906200410 | 87 | 293 | 1.0 | 3.0 | 0.00 | 0.00 | 0.00 | 70 | 1015.5 |
| 20260906195954 | 87 | 158 | 2.0 | 4.0 | 0.00 | 0.00 | 0.00 | 69 | 1015.5 |
| 20260906195537 | 88 | 180 | 6.0 | 6.0 | 0.00 | 0.00 | 0.00 | 68 | 1015.5 |
| 20260906195105 | 87 | 180 | 0.0 | 4.0 | 0.00 | 0.00 | 0.00 | 68 | 1015.5 |
| 20260906194650 | 87 | 180 | 3.0 | 3.0 | 0.00 | 0.00 | 0.00 | 69 | 1015.5 |
| 20260906194219 | 90 | 203 | 3.0 | 3.0 | 0.00 | 0.00 | 0.00 | 65 | 1015.5 |
| 20260906193730 | 91 | 113 | 3.0 | 4.0 | 0.00 | 0.00 | 0.00 | 65 | 1015.9 |
| 20260906193314 | 92 | 23 | 2.0 | 6.0 | 0.00 | 0.00 | 0.00 | 64 | 1015.9 |
| 20260906192842 | 92 | 203 | 5.0 | 5.0 | 0.00 | 0.00 | 0.00 | 64 | 1015.9 |
| 20260906192426 | 93 | 225 | 0.0 | 3.0 | 0.00 | 0.00 | 0.00 | 60 | 1015.9 |
| 20260906191541 | 94 | 0 | 1.0 | 4.0 | 0.00 | 0.00 | 0.00 | 61 | 1016.2 |
| 20260906190638 | 87 | 180 | 3.0 | 6.0 | 0.00 | 0.00 | 0.00 | 69 | 1016.2 |
| 20260906185721 | 90 | 270 | 1.0 | 2.0 | 0.00 | 0.00 | 0.00 | 67 | 1016.2 |
| 20260906185249 | 91 | 338 | 5.0 | 6.0 | 0.00 | 0.00 | 0.00 | 65 | 1016.2 |
| 20260906184818 | 89 | 0 | 3.0 | 4.0 | 0.00 | 0.00 | 0.00 | 68 | 1016.5 |
| 20260906184402 | 89 | 90 | 3.0 | 4.0 | 0.00 | 0.00 | 0.00 | 70 | 1016.5 |
| 20260906183946 | 89 | 225 | 3.0 | 5.0 | 0.00 | 0.00 | 0.00 | 69 | 1016.5 |
| 20260906183515 | 89 | 315 | 1.0 | 3.0 | 0.00 | 0.00 | 0.00 | 72 | 1016.5 |
| 20260906183039 | 86 | 113 | 2.0 | 5.0 | 0.00 | 0.00 | 0.00 | 77 | 1016.5 |
| 20260906182554 | 86 | 180 | 4.0 | 5.0 | 0.00 | 0.00 | 0.00 | 77 | 1016.5 |
| 20260906182139 | 84 | 158 | 2.0 | 4.0 | 0.00 | 0.00 | 0.00 | 80 | 1016.5 |
| 20260906181721 | 83 | 45 | 4.0 | 4.0 | 0.00 | 0.00 | 0.00 | 81 | 1016.5 |
| 20260906181249 | 82 | 0 | 3.0 | 3.0 | 0.00 | 0.00 | 0.00 | 82 | 1016.9 |
| 20260906180818 | 82 | 0 | 3.0 | 4.0 | 0.00 | 0.00 | 0.00 | 83 | 1016.5 |
| 20260906180347 | 83 | 23 | 5.0 | 5.0 | 0.00 | 0.00 | 0.00 | 83 | 1016.9 |
| 20260906175930 | 82 | 158 | 0.0 | 3.0 | 0.00 | 0.00 | 0.00 | 85 | 1016.9 |
| 20260906175026 | 81 | 203 | 1.0 | 5.0 | 0.00 | 0.00 | 0.00 | 86 | 1016.9 |
| 20260906174553 | 80 | 23 | 4.0 | 7.0 | 0.00 | 0.00 | 0.00 | 88 | 1016.9 |
| 20260906174137 | 80 | 45 | 6.0 | 7.0 | 0.00 | 0.00 | 0.00 | 88 | 1016.9 |
| 20260906173652 | 80 | 23 | 6.0 | 6.0 | 0.00 | 0.00 | 0.00 | 87 | 1016.9 |
| 20260906172735 | 80 | 23 | 0.0 | 2.0 | 0.00 | 0.00 | 0.00 | 88 | 1017.2 |
| 20260906172301 | 79 | 23 | 2.0 | 4.0 | 0.00 | 0.00 | 0.00 | 89 | 1017.2 |
| 20260906171846 | 79 | 23 | 5.0 | 5.0 | 0.00 | 0.00 | 0.00 | 90 | 1017.2 |
| 20260906171430 | 78 | 90 | 0.0 | 4.0 | 0.00 | 0.00 | 0.00 | 91 | 1017.2 |
| 20260906170022 | 79 | 23 | 2.0 | 3.0 | 0.00 | 0.00 | 0.00 | 90 | 1017.2 |
| 20260906165551 | 79 | 0 | 4.0 | 4.0 | 0.00 | 0.00 | 0.00 | 90 | 1017.6 |
| 20260906165120 | 78 | 45 | 1.0 | 4.0 | 0.00 | 0.00 | 0.00 | 92 | 1017.6 |
| 20260906164701 | 78 | 23 | 4.0 | 4.0 | 0.00 | 0.00 | 0.00 | 92 | 1017.6 |
| 20260906164245 | 79 | 23 | 3.0 | 4.0 | 0.00 | 0.00 | 0.00 | 92 | 1017.6 |
| 20260906163827 | 79 | 45 | 3.0 | 6.0 | 0.00 | 0.00 | 0.00 | 91 | 1017.6 |
| 20260906163410 | 78 | 0 | 3.0 | 6.0 | 0.00 | 0.00 | 0.00 | 92 | 1017.6 |
| 20260906162952 | 79 | 0 | 4.0 | 6.0 | 0.00 | 0.00 | 0.00 | 90 | 1017.6 |
| 20260906162536 | 79 | 338 | 4.0 | 4.0 | 0.00 | 0.00 | 0.00 | 91 | 1017.6 |
| 20260906162105 | 78 | 113 | 0.0 | 3.0 | 0.00 | 0.00 | 0.00 | 93 | 1017.6 |
| 20260906161634 | 78 | 225 | 0.0 | 4.0 | 0.00 | 0.00 | 0.00 | 94 | 1017.9 |
| 20260906161217 | 78 | 0 | 2.0 | 2.0 | 0.00 | 0.00 | 0.00 | 94 | 1017.9 |
| 20260906160759 | 77 | 23 | 2.0 | 5.0 | 0.00 | 0.00 | 0.00 | 94 | 1017.9 |
| 20260906160343 | 78 | 23 | 4.0 | 4.0 | 0.00 | 0.00 | 0.00 | 95 | 1017.9 |
| 20260906155427 | 77 | 23 | 5.0 | 6.0 | 0.00 | 0.00 | 0.00 | 95 | 1017.6 |
| 20260906154955 | 77 | 338 | 4.0 | 4.0 | 0.00 | 0.00 | 0.00 | 95 | 1017.9 |
| 20260906153050 | 77 | 0 | 3.0 | 4.0 | 0.00 | 0.00 | 0.00 | 96 | 1017.6 |
| 20260906152603 | 77 | 23 | 2.0 | 4.0 | 0.00 | 0.00 | 0.00 | 96 | 1017.6 |
| 20260906152147 | 77 | 270 | 0.0 | 0.0 | 0.00 | 0.00 | 0.00 | 96 | 1017.6 |
| 20260906151242 | 77 | 0 | 1.0 | 4.0 | 0.00 | 0.00 | 0.00 | 97 | 1017.2 |
| 20260906150353 | 76 | 0 | 2.0 | 4.0 | 0.00 | 0.00 | 0.00 | 99 | 1017.2 |
| 20260906145922 | 76 | 0 | 4.0 | 5.0 | 0.00 | 0.00 | 0.00 | 99 | 1017.2 |
| 20260906145504 | 76 | 180 | 2.0 | 2.0 | 0.00 | 0.00 | 0.00 | 99 | 1017.2 |
| 20260906145048 | 76 | 23 | 3.0 | 4.0 | 0.00 | 0.00 | 0.00 | 99 | 1017.2 |
| 20260906144631 | 76 | 45 | 2.0 | 4.0 | 0.00 | 0.00 | 0.00 | 99 | 1017.2 |
| 20260906144214 | 76 | 23 | 2.0 | 3.0 | 0.00 | 0.00 | 0.00 | 99 | 1017.2 |
| 20260906143757 | 76 | 0 | 4.0 | 5.0 | 0.00 | 0.00 | 0.00 | 99 | 1017.2 |
| 20260906143327 | 76 | 23 | 2.0 | 3.0 | 0.00 | 0.00 | 0.00 | 99 | 1017.2 |
| 20260906142911 | 76 | 270 | 2.0 | 3.0 | 0.00 | 0.00 | 0.00 | 99 | 1017.2 |
| 20260906142439 | 76 | 0 | 2.0 | 4.0 | 0.00 | 0.00 | 0.00 | 99 | 1017.2 |
| 20260906142021 | 76 | 23 | 4.0 | 4.0 | 0.00 | 0.00 | 0.00 | 99 | 1017.2 |
| 20260906141606 | 76 | 0 | 3.0 | 4.0 | 0.00 | 0.00 | 0.00 | 99 | 1017.2 |
| 20260906141148 | 76 | 338 | 2.0 | 4.0 | 0.00 | 0.00 | 0.00 | 99 | 1017.2 |
| 20260906140729 | 76 | 23 | 3.0 | 5.0 | 0.00 | 0.00 | 0.00 | 99 | 1016.9 |
| 20260906140313 | 76 | 338 | 4.0 | 4.0 | 0.00 | 0.00 | 0.00 | 99 | 1016.9 |
| 20260906135841 | 76 | 338 | 0.0 | 3.0 | 0.00 | 0.00 | 0.00 | 99 | 1016.9 |
| 20260906135423 | 75 | 23 | 0.0 | 2.0 | 0.00 | 0.00 | 0.00 | 99 | 1017.2 |
| 20260906135007 | 75 | 338 | 2.0 | 2.0 | 0.00 | 0.00 | 0.00 | 99 | 1017.2 |
| 20260906134550 | 74 | 203 | 0.0 | 0.0 | 0.00 | 0.00 | 0.00 | 99 | 1016.9 |
| 20260906134136 | 74 | 180 | 0.0 | 0.0 | 0.00 | 0.00 | 0.00 | 99 | 1017.2 |
| 20260906133719 | 73 | 0 | 0.0 | 2.0 | 0.00 | 0.00 | 0.00 | 99 | 1017.2 |
| 20260906133302 | 73 | 203 | 0.0 | 2.0 | 0.00 | 0.00 | 0.00 | 99 | 1017.2 |
| 20260906132845 | 73 | 0 | 2.0 | 3.0 | 0.00 | 0.00 | 0.00 | 99 | 1017.2 |
| 20260906132413 | 73 | 23 | 3.0 | 3.0 | 0.00 | 0.00 | 0.00 | 99 | 1017.2 |
| 20260906131525 | 72 | 338 | 2.0 | 2.0 | 0.00 | 0.00 | 0.00 | 99 | 1017.2 |
| 20260906131110 | 72 | 23 | 0.0 | 0.0 | 0.00 | 0.00 | 0.00 | 99 | 1017.2 |
| 20260906125734 | 72 | 23 | 0.0 | 4.0 | 0.00 | 0.00 | 0.00 | 99 | 1016.9 |
| 20260906125246 | 72 | 45 | 0.0 | 2.0 | 0.00 | 0.00 | 0.00 | 99 | 1016.9 |
| 20260906124828 | 72 | 0 | 2.0 | 6.0 | 0.00 | 0.00 | 0.00 | 99 | 1016.9 |
| 20260906123924 | 72 | 0 | 0.0 | 0.0 | 0.00 | 0.00 | 0.00 | 99 | 1016.9 |
| 20260906123452 | 72 | 68 | 0.0 | 0.0 | 0.00 | 0.00 | 0.00 | 99 | 1016.5 |
| 20260906123021 | 71 | 225 | 0.0 | 0.0 | 0.00 | 0.00 | 0.00 | 99 | 1016.5 |
| 20260906122604 | 71 | 225 | 0.0 | 0.0 | 0.00 | 0.00 | 0.00 | 99 | 1016.5 |
| 20260906122148 | 71 | 203 | 0.0 | 0.0 | 0.00 | 0.00 | 0.00 | 99 | 1016.5 |
| 20260906121715 | 71 | 225 | 0.0 | 0.0 | 0.00 | 0.00 | 0.00 | 99 | 1016.5 |
| 20260906121241 | 71 | 180 | 0.0 | 0.0 | 0.00 | 0.00 | 0.00 | 99 | 1016.2 |
| 20260906115853 | 71 | 203 | 0.0 | 0.0 | 0.00 | 0.00 | 0.00 | 99 | 1016.2 |
| 20260906115421 | 71 | 180 | 0.0 | 0.0 | 0.00 | 0.00 | 0.00 | 99 | 1016.2 |
| 20260906114947 | 71 | 225 | 0.0 | 0.0 | 0.00 | 0.00 | 0.00 | 99 | 1016.2 |
| 20260906114532 | 71 | 270 | 0.0 | 0.0 | 0.00 | 0.00 | 0.00 | 99 | 1016.2 |
| 20260906114117 | 71 | 23 | 0.0 | 0.0 | 0.00 | 0.00 | 0.00 | 99 | 1015.9 |
| 20260906113615 | 71 | 225 | 0.0 | 0.0 | 0.00 | 0.00 | 0.00 | 99 | 1015.9 |
| 20260906112655 | 71 | 23 | 0.0 | 0.0 | 0.00 | 0.00 | 0.00 | 99 | 1015.9 |
| 20260906111739 | 70 | 203 | 0.0 | 0.0 | 0.00 | 0.00 | 0.00 | 99 | 1015.9 |
| 20260906111323 | 70 | 248 | 0.0 | 0.0 | 0.00 | 0.00 | 0.00 | 99 | 1015.9 |
| 20260906110906 | 70 | 248 | 0.0 | 0.0 | 0.00 | 0.00 | 0.00 | 99 | 1015.9 |
| 20260906110435 | 71 | 180 | 0.0 | 0.0 | 0.00 | 0.00 | 0.00 | 99 | 1015.5 |
| 20260906110021 | 71 | 203 | 0.0 | 0.0 | 0.00 | 0.00 | 0.00 | 99 | 1015.5 |
| 20260906105120 | 70 | 248 | 0.0 | 0.0 | 0.00 | 0.00 | 0.00 | 99 | 1015.5 |
| 20260906104650 | 70 | 180 | 0.0 | 0.0 | 0.00 | 0.00 | 0.00 | 99 | 1015.5 |
| 20260906104232 | 70 | 203 | 0.0 | 0.0 | 0.00 | 0.00 | 0.00 | 99 | 1015.5 |
| 20260906103815 | 70 | 248 | 0.0 | 0.0 | 0.00 | 0.00 | 0.00 | 99 | 1015.2 |
| 20260906103359 | 71 | 23 | 0.0 | 0.0 | 0.00 | 0.00 | 0.00 | 99 | 1015.2 |
| 20260906102441 | 70 | 203 | 0.0 | 0.0 | 0.00 | 0.00 | 0.00 | 99 | 1015.2 |
| 20260906102010 | 70 | 225 | 0.0 | 0.0 | 0.00 | 0.00 | 0.00 | 99 | 1015.2 |
| 20260906101125 | 70 | 203 | 0.0 | 0.0 | 0.00 | 0.00 | 0.00 | 99 | 1015.2 |
| 20260906100223 | 70 | 225 | 0.0 | 0.0 | 0.00 | 0.00 | 0.00 | 99 | 1015.2 |
| 20260906095751 | 70 | 225 | 0.0 | 0.0 | 0.00 | 0.00 | 0.00 | 99 | 1014.9 |
| 20260906095321 | 70 | 203 | 0.0 | 0.0 | 0.00 | 0.00 | 0.00 | 99 | 1014.9 |
| 20260906094902 | 70 | 203 | 0.0 | 0.0 | 0.00 | 0.00 | 0.00 | 99 | 1014.9 |
| 20260906093946 | 70 | 203 | 0.0 | 0.0 | 0.00 | 0.00 | 0.00 | 99 | 1014.9 |
| 20260906093529 | 70 | 225 | 0.0 | 0.0 | 0.00 | 0.00 | 0.00 | 99 | 1014.9 |
| 20260906093114 | 70 | 180 | 0.0 | 0.0 | 0.00 | 0.00 | 0.00 | 99 | 1014.9 |
| 20260906092656 | 70 | 203 | 0.0 | 0.0 | 0.00 | 0.00 | 0.00 | 99 | 1014.9 |
| 20260906091340 | 71 | 203 | 0.0 | 0.0 | 0.00 | 0.00 | 0.00 | 99 | 1014.9 |
| 20260906090908 | 71 | 180 | 0.0 | 0.0 | 0.00 | 0.00 | 0.00 | 99 | 1014.9 |
| 20260906090002 | 71 | 203 | 0.0 | 0.0 | 0.00 | 0.00 | 0.00 | 99 | 1014.9 |
| 20260906085530 | 71 | 203 | 0.0 | 0.0 | 0.00 | 0.00 | 0.00 | 99 | 1014.9 |
| 20260906085113 | 71 | 203 | 0.0 | 0.0 | 0.00 | 0.00 | 0.00 | 99 | 1014.9 |
| 20260906084642 | 71 | 90 | 0.0 | 0.0 | 0.00 | 0.00 | 0.00 | 99 | 1014.9 |
| 20260906084212 | 71 | 203 | 0.0 | 0.0 | 0.00 | 0.00 | 0.00 | 99 | 1014.9 |
| 20260906083739 | 71 | 180 | 0.0 | 0.0 | 0.00 | 0.00 | 0.00 | 99 | 1014.9 |
| 20260906083323 | 71 | 180 | 0.0 | 0.0 | 0.00 | 0.00 | 0.00 | 99 | 1014.9 |
| 20260906082904 | 71 | 158 | 0.0 | 0.0 | 0.00 | 0.00 | 0.00 | 99 | 1015.2 |
| 20260906082433 | 71 | 203 | 0.0 | 0.0 | 0.00 | 0.00 | 0.00 | 99 | 1015.2 |
| 20260906082002 | 71 | 225 | 0.0 | 0.0 | 0.00 | 0.00 | 0.00 | 99 | 1015.2 |
| 20260906081515 | 71 | 315 | 0.0 | 0.0 | 0.00 | 0.00 | 0.00 | 99 | 1015.2 |
| 20260906081044 | 71 | 338 | 0.0 | 0.0 | 0.00 | 0.00 | 0.00 | 99 | 1015.2 |
| 20260906080614 | 71 | 45 | 0.0 | 0.0 | 0.00 | 0.00 | 0.00 | 99 | 1015.2 |
| 20260906080144 | 71 | 45 | 0.0 | 0.0 | 0.00 | 0.00 | 0.00 | 99 | 1014.9 |
| 20260906075726 | 71 | 225 | 0.0 | 0.0 | 0.00 | 0.00 | 0.00 | 99 | 1014.9 |
| 20260906074837 | 71 | 225 | 0.0 | 0.0 | 0.00 | 0.00 | 0.00 | 99 | 1014.9 |
| 20260906074422 | 71 | 203 | 0.0 | 0.0 | 0.00 | 0.00 | 0.00 | 99 | 1014.9 |
| 20260906074004 | 71 | 203 | 0.0 | 0.0 | 0.00 | 0.00 | 0.00 | 99 | 1014.9 |
| 20260906073533 | 71 | 203 | 0.0 | 0.0 | 0.00 | 0.00 | 0.00 | 99 | 1014.9 |
| 20260906073116 | 71 | 203 | 0.0 | 0.0 | 0.00 | 0.00 | 0.00 | 99 | 1014.9 |
| 20260906072227 | 71 | 225 | 0.0 | 0.0 | 0.00 | 0.00 | 0.00 | 99 | 1015.2 |
| 20260906071756 | 71 | 338 | 0.0 | 0.0 | 0.00 | 0.00 | 0.00 | 99 | 1015.2 |
| 20260906071340 | 71 | 0 | 0.0 | 0.0 | 0.00 | 0.00 | 0.00 | 99 | 1014.9 |
| 20260906070422 | 71 | 23 | 0.0 | 0.0 | 0.00 | 0.00 | 0.00 | 99 | 1014.9 |
| 20260906065518 | 71 | 338 | 0.0 | 0.0 | 0.00 | 0.00 | 0.00 | 99 | 1014.9 |
| 20260906064630 | 71 | 180 | 0.0 | 0.0 | 0.00 | 0.00 | 0.00 | 99 | 1014.5 |
| 20260906063725 | 71 | 315 | 0.0 | 0.0 | 0.00 | 0.00 | 0.00 | 99 | 1014.9 |
| 20260906063307 | 71 | 270 | 0.0 | 0.0 | 0.00 | 0.00 | 0.00 | 99 | 1014.9 |
| 20260906062851 | 71 | 270 | 0.0 | 0.0 | 0.00 | 0.00 | 0.00 | 99 | 1014.9 |
| 20260906062436 | 71 | 270 | 0.0 | 0.0 | 0.00 | 0.00 | 0.00 | 99 | 1014.9 |
| 20260906062002 | 71 | 225 | 0.0 | 0.0 | 0.00 | 0.00 | 0.00 | 99 | 1014.9 |
| 20260906061531 | 71 | 180 | 0.0 | 0.0 | 0.00 | 0.00 | 0.00 | 99 | 1014.9 |
| 20260906061114 | 71 | 225 | 0.0 | 0.0 | 0.00 | 0.00 | 0.00 | 99 | 1015.2 |
| 20260906060657 | 71 | 203 | 0.0 | 0.0 | 0.00 | 0.00 | 0.00 | 99 | 1015.2 |
| 20260906060242 | 71 | 203 | 0.0 | 0.0 | 0.00 | 0.00 | 0.00 | 99 | 1015.2 |
| 20260906055825 | 71 | 203 | 0.0 | 0.0 | 0.00 | 0.00 | 0.00 | 99 | 1015.2 |
| 20260906055410 | 71 | 203 | 0.0 | 0.0 | 0.00 | 0.00 | 0.00 | 99 | 1015.2 |
| 20260906054954 | 71 | 203 | 0.0 | 0.0 | 0.00 | 0.00 | 0.00 | 99 | 1015.2 |
| 20260906054053 | 71 | 225 | 0.0 | 0.0 | 0.00 | 0.00 | 0.00 | 99 | 1015.5 |
| 20260906053639 | 71 | 90 | 0.0 | 2.0 | 0.00 | 0.00 | 0.00 | 99 | 1015.5 |
| 20260906053208 | 71 | 45 | 0.0 | 0.0 | 0.00 | 0.00 | 0.00 | 99 | 1015.2 |
| 20260906052737 | 71 | 0 | 0.0 | 0.0 | 0.00 | 0.00 | 0.00 | 99 | 1015.2 |
| 20260906052306 | 71 | 0 | 0.0 | 0.0 | 0.00 | 0.00 | 0.00 | 99 | 1015.2 |
| 20260906051834 | 71 | 293 | 0.0 | 0.0 | 0.00 | 0.00 | 0.00 | 99 | 1015.2 |
| 20260906050918 | 71 | 0 | 0.0 | 0.0 | 0.00 | 0.00 | 0.00 | 99 | 1014.9 |
| 20260906050503 | 71 | 293 | 0.0 | 0.0 | 0.00 | 0.00 | 0.00 | 99 | 1014.9 |
| 20260906050033 | 72 | 225 | 0.0 | 0.0 | 0.00 | 0.00 | 0.00 | 99 | 1014.9 |
| 20260906045616 | 72 | 225 | 0.0 | 0.0 | 0.00 | 0.00 | 0.00 | 99 | 1015.2 |
| 20260906045159 | 72 | 225 | 0.0 | 0.0 | 0.00 | 0.00 | 0.00 | 99 | 1014.9 |
| 20260906044743 | 72 | 248 | 0.0 | 0.0 | 0.00 | 0.00 | 0.00 | 99 | 1014.9 |
| 20260906044312 | 72 | 180 | 0.0 | 0.0 | 0.00 | 0.00 | 0.00 | 99 | 1014.9 |
| 20260906043840 | 72 | 203 | 0.0 | 0.0 | 0.00 | 0.00 | 0.00 | 99 | 1014.9 |
| 20260906043410 | 72 | 203 | 0.0 | 0.0 | 0.00 | 0.00 | 0.00 | 99 | 1015.2 |
| 20260906042509 | 72 | 248 | 0.0 | 0.0 | 0.00 | 0.00 | 0.00 | 99 | 1015.2 |
| 20260906042054 | 72 | 338 | 0.0 | 0.0 | 0.00 | 0.00 | 0.00 | 99 | 1014.9 |
| 20260906041622 | 72 | 203 | 0.0 | 0.0 | 0.00 | 0.00 | 0.00 | 99 | 1014.9 |
| 20260906041136 | 72 | 203 | 0.0 | 0.0 | 0.00 | 0.00 | 0.00 | 99 | 1014.9 |
| 20260906040719 | 72 | 270 | 0.0 | 0.0 | 0.00 | 0.00 | 0.00 | 99 | 1014.9 |
| 20260906040302 | 72 | 270 | 0.0 | 0.0 | 0.00 | 0.00 | 0.00 | 99 | 1014.9 |
| 20260906035832 | 72 | 225 | 0.0 | 0.0 | 0.00 | 0.00 | 0.22 | 99 | 1014.9 |
| 20260906035415 | 72 | 225 | 0.0 | 0.0 | 0.00 | 0.00 | 0.22 | 99 | 1014.9 |
| 20260906034958 | 72 | 225 | 0.0 | 0.0 | 0.00 | 0.00 | 0.22 | 99 | 1014.9 |
| 20260906034545 | 72 | 270 | 0.0 | 0.0 | 0.00 | 0.00 | 0.22 | 99 | 1014.9 |
| 20260906033610 | 72 | 203 | 0.0 | 0.0 | 0.00 | 0.00 | 0.22 | 99 | 1015.2 |
| 20260906033156 | 72 | 225 | 0.0 | 0.0 | 0.00 | 0.00 | 0.22 | 99 | 1015.2 |
| 20260906032721 | 73 | 248 | 0.0 | 0.0 | 0.00 | 0.00 | 0.22 | 99 | 1015.2 |
| 20260906032250 | 73 | 270 | 0.0 | 0.0 | 0.00 | 0.00 | 0.22 | 99 | 1015.2 |
| 20260906031348 | 73 | 203 | 0.0 | 0.0 | 0.00 | 0.00 | 0.22 | 99 | 1015.5 |
| 20260906030444 | 73 | 225 | 0.0 | 0.0 | 0.00 | 0.00 | 0.22 | 99 | 1015.5 |
| 20260906030027 | 73 | 225 | 0.0 | 0.0 | 0.00 | 0.00 | 0.22 | 99 | 1015.5 |
| 20260906025556 | 73 | 270 | 0.0 | 0.0 | 0.00 | 0.00 | 0.22 | 99 | 1015.5 |
| 20260906025123 | 73 | 203 | 0.0 | 0.0 | 0.00 | 0.00 | 0.22 | 99 | 1015.5 |
| 20260906024650 | 73 | 248 | 0.0 | 0.0 | 0.00 | 0.00 | 0.22 | 99 | 1015.5 |
| 20260906024219 | 73 | 225 | 0.0 | 0.0 | 0.00 | 0.00 | 0.22 | 99 | 1015.5 |
| 20260906023746 | 73 | 203 | 0.0 | 0.0 | 0.00 | 0.00 | 0.22 | 99 | 1015.5 |
| 20260906022844 | 73 | 203 | 0.0 | 0.0 | 0.00 | 0.00 | 0.22 | 99 | 1015.5 |
| 20260906022412 | 73 | 180 | 0.0 | 0.0 | 0.00 | 0.00 | 0.22 | 99 | 1015.5 |
| 20260906021956 | 73 | 203 | 0.0 | 0.0 | 0.00 | 0.00 | 0.22 | 99 | 1015.5 |
| 20260906021526 | 73 | 225 | 0.0 | 0.0 | 0.00 | 0.00 | 0.22 | 99 | 1015.5 |
| 20260906021109 | 73 | 270 | 0.0 | 0.0 | 0.00 | 0.00 | 0.22 | 99 | 1015.5 |
| 20260906020621 | 73 | 203 | 0.0 | 0.0 | 0.00 | 0.00 | 0.22 | 99 | 1015.5 |
| 20260906020150 | 74 | 203 | 0.0 | 0.0 | 0.00 | 0.00 | 0.22 | 99 | 1015.5 |
| 20260906015301 | 74 | 203 | 0.0 | 0.0 | 0.00 | 0.00 | 0.22 | 99 | 1015.2 |
| 20260906014829 | 74 | 203 | 0.0 | 0.0 | 0.00 | 0.00 | 0.22 | 99 | 1015.2 |
| 20260906013941 | 74 | 203 | 0.0 | 0.0 | 0.00 | 0.00 | 0.22 | 99 | 1014.9 |
| 20260906013524 | 74 | 203 | 0.0 | 0.0 | 0.00 | 0.00 | 0.22 | 99 | 1014.9 |
| 20260906013051 | 74 | 203 | 0.0 | 0.0 | 0.00 | 0.00 | 0.22 | 99 | 1014.9 |
| 20260906011731 | 75 | 225 | 0.0 | 0.0 | 0.00 | 0.00 | 0.22 | 99 | 1014.9 |
| 20260906011245 | 75 | 225 | 0.0 | 0.0 | 0.00 | 0.00 | 0.22 | 99 | 1014.9 |
| 20260906010341 | 75 | 203 | 1.0 | 1.0 | 0.00 | 0.00 | 0.22 | 99 | 1014.5 |
| 20260906005924 | 76 | 225 | 0.0 | 0.0 | 0.00 | 0.00 | 0.22 | 99 | 1014.5 |
| 20260906005508 | 76 | 203 | 1.0 | 2.0 | 0.00 | 0.00 | 0.22 | 99 | 1014.5 |
| 20260906005036 | 76 | 203 | 0.0 | 2.0 | 0.00 | 0.00 | 0.22 | 99 | 1014.5 |
| 20260906004132 | 76 | 248 | 0.0 | 0.0 | 0.00 | 0.00 | 0.22 | 99 | 1014.5 |
| 20260906003714 | 76 | 203 | 0.0 | 0.0 | 0.00 | 0.00 | 0.22 | 99 | 1014.5 |
| 20260906003258 | 76 | 225 | 0.0 | 0.0 | 0.00 | 0.00 | 0.22 | 99 | 1014.5 |
| 20260906002811 | 76 | 203 | 2.0 | 2.0 | 0.00 | 0.00 | 0.22 | 99 | 1014.5 |
| 20260906002354 | 77 | 203 | 0.0 | 0.0 | 0.00 | 0.00 | 0.22 | 99 | 1014.5 |
| 20260906001937 | 77 | 203 | 0.0 | 0.0 | 0.00 | 0.00 | 0.22 | 99 | 1014.5 |
| 20260906001521 | 77 | 225 | 2.0 | 2.0 | 0.00 | 0.00 | 0.22 | 99 | 1014.5 |
| 20260906001049 | 78 | 203 | 0.0 | 0.0 | 0.00 | 0.00 | 0.22 | 99 | 1014.5 |
| 20260906000204 | 78 | 225 | 1.0 | 1.0 | 0.00 | 0.00 | 0.22 | 99 | 1014.5 |
| 20260905235744 | 78 | 203 | 2.0 | 2.0 | 0.00 | 0.00 | 0.22 | 99 | 1014.5 |
| 20260905235310 | 78 | 225 | 2.0 | 2.0 | 0.00 | 0.00 | 0.22 | 98 | 1014.5 |
| 20260905234839 | 78 | 180 | 2.0 | 2.0 | 0.00 | 0.00 | 0.22 | 98 | 1014.5 |
| 20260905234423 | 79 | 203 | 1.0 | 2.0 | 0.00 | 0.00 | 0.22 | 98 | 1014.5 |
| 20260905234007 | 79 | 203 | 3.0 | 3.0 | 0.00 | 0.00 | 0.22 | 97 | 1014.5 |
| 20260905233553 | 79 | 203 | 2.0 | 2.0 | 0.00 | 0.00 | 0.22 | 96 | 1014.9 |
| 20260905232654 | 79 | 180 | 3.0 | 3.0 | 0.00 | 0.00 | 0.22 | 95 | 1014.9 |
| 20260905232226 | 79 | 203 | 3.0 | 3.0 | 0.00 | 0.00 | 0.22 | 95 | 1014.5 |